| time (UTC) | temp C | wind direction | speed KPH | gust KPH | rain 1hr cm | rain 24hr cm | rain mn cm | humidity % | barometer mb |
| 20260510162958 | 12 | 279 | 14.5 | 35.4 | 0.00 | 0.33 | 0.03 | 47 | 1016.7 |
| 20260510161459 | 12 | 245 | 9.7 | 30.6 | 0.00 | 0.33 | 0.03 | 52 | 1016.5 |
| 20260510160002 | 12 | 262 | 9.7 | 20.9 | 0.00 | 0.33 | 0.03 | 51 | 1016.5 |
| 20260510154459 | 11 | 288 | 11.3 | 22.5 | 0.00 | 0.33 | 0.03 | 54 | 1016.4 |
| 20260510142959 | 11 | 280 | 9.7 | 19.3 | 0.00 | 0.33 | 0.03 | 58 | 1015.6 |
| 20260510141459 | 11 | 277 | 8.0 | 19.3 | 0.00 | 0.33 | 0.03 | 62 | 1015.3 |
| 20260510140001 | 10 | 271 | 8.0 | 20.9 | 0.00 | 0.33 | 0.03 | 59 | 1015.2 |
| 20260510132959 | 10 | 194 | 6.4 | 14.5 | 0.00 | 0.33 | 0.03 | 64 | 1014.6 |
| 20260510131459 | 10 | 279 | 8.0 | 16.1 | 0.00 | 0.33 | 0.03 | 66 | 1014.5 |
| 20260510130002 | 10 | 267 | 6.4 | 17.7 | 0.00 | 0.33 | 0.03 | 65 | 1014.5 |
| 20260510124458 | 10 | 248 | 6.4 | 17.7 | 0.00 | 0.33 | 0.03 | 68 | 1014.4 |
| 20260510122958 | 9 | 315 | 6.4 | 14.5 | 0.00 | 0.33 | 0.03 | 68 | 1014.3 |
| 20260510121458 | 8 | 272 | 4.8 | 11.3 | 0.00 | 0.33 | 0.03 | 71 | 1014.2 |
| 20260510114500 | 8 | 253 | 6.4 | 16.1 | 0.00 | 0.33 | 0.03 | 75 | 1014.0 |
| 20260510112958 | 8 | 256 | 6.4 | 12.9 | 0.00 | 0.33 | 0.03 | 75 | 1013.6 |
| 20260510111458 | 8 | 273 | 4.8 | 14.5 | 0.00 | 0.33 | 0.03 | 76 | 1013.3 |
| 20260510104457 | 8 | 271 | 4.8 | 12.9 | 0.00 | 0.33 | 0.03 | 78 | 1012.5 |
| 20260510102957 | 8 | 282 | 3.2 | 6.4 | 0.00 | 0.33 | 0.03 | 79 | 1011.9 |
| 20260510101458 | 8 | 269 | 3.2 | 9.7 | 0.00 | 0.33 | 0.03 | 78 | 1011.8 |
| 20260510092958 | 8 | 299 | 0.0 | 1.6 | 0.00 | 0.33 | 0.03 | 78 | 1010.7 |
| 20260510091457 | 8 | 300 | 1.6 | 4.8 | 0.00 | 0.33 | 0.03 | 76 | 1011.0 |
| 20260510090001 | 8 | 285 | 1.6 | 4.8 | 0.03 | 0.33 | 0.03 | 77 | 1011.2 |
| 20260510084458 | 8 | 285 | 1.6 | 4.8 | 0.03 | 0.33 | 0.03 | 79 | 1010.6 |
| 20260510082958 | 8 | 309 | 1.6 | 6.4 | 0.03 | 0.33 | 0.03 | 80 | 1010.6 |
| 20260510081457 | 9 | 286 | 3.2 | 14.5 | 0.03 | 0.33 | 0.03 | 82 | 1010.5 |
| 20260510080000 | 10 | 301 | 3.2 | 9.7 | 0.00 | 0.30 | 0.00 | 88 | 1010.2 |
| 20260510074457 | 10 | 277 | 0.0 | 4.8 | 0.00 | 0.30 | 0.00 | 94 | 1010.0 |
| 20260510072957 | 10 | 258 | 1.6 | 4.8 | 0.00 | 0.30 | 0.00 | 94 | 1009.7 |
| 20260510071458 | 10 | 295 | 1.6 | 4.8 | 0.00 | 0.30 | 0.00 | 95 | 1009.7 |
| 20260510070001 | 10 | 261 | 3.2 | 6.4 | 0.00 | 0.30 | 0.00 | 95 | 1009.4 |
| 20260510064458 | 10 | 265 | 3.2 | 6.4 | 0.00 | 0.30 | 0.00 | 96 | 1009.2 |
| 20260510061458 | 8 | 159 | 0.0 | 1.6 | 0.00 | 0.30 | 0.00 | 96 | 1009.1 |
| 20260510054458 | 8 | 159 | 0.0 | 1.6 | 0.00 | 0.30 | 0.00 | 95 | 1009.0 |
| 20260510052958 | 8 | 159 | 0.0 | 1.6 | 0.00 | 0.30 | 0.00 | 95 | 1008.7 |
| 20260510051457 | 8 | 159 | 0.0 | 0.0 | 0.00 | 0.30 | 0.00 | 94 | 1008.7 |
| 20260510044456 | 9 | 159 | 0.0 | 0.0 | 0.00 | 0.30 | 0.00 | 94 | 1008.1 |
| 20260510041456 | 9 | 159 | 0.0 | 1.6 | 0.00 | 0.30 | 0.00 | 94 | 1008.1 |
| 20260510034500 | 9 | 159 | 0.0 | 1.6 | 0.00 | 0.30 | 0.30 | 93 | 1007.9 |
| 20260510033001 | 10 | 159 | 0.0 | 4.8 | 0.00 | 0.30 | 0.30 | 92 | 1007.8 |
| 20260510031500 | 10 | 159 | 0.0 | 3.2 | 0.00 | 0.30 | 0.30 | 91 | 1007.5 |
| 20260510024500 | 10 | 150 | 1.6 | 4.8 | 0.00 | 0.30 | 0.30 | 90 | 1007.2 |
| 20260510023000 | 11 | 212 | 0.0 | 3.2 | 0.00 | 0.30 | 0.30 | 90 | 1007.2 |
| 20260510021501 | 11 | 163 | 1.6 | 4.8 | 0.00 | 0.30 | 0.30 | 90 | 1007.0 |
| 20260510020004 | 11 | 203 | 1.6 | 4.8 | 0.00 | 0.30 | 0.30 | 90 | 1007.0 |
| 20260510014500 | 11 | 205 | 1.6 | 3.2 | 0.00 | 0.30 | 0.30 | 91 | 1006.2 |
| 20260510013000 | 11 | 214 | 1.6 | 3.2 | 0.03 | 0.30 | 0.30 | 91 | 1006.6 |
| 20260510010005 | 11 | 174 | 4.8 | 11.3 | 0.20 | 0.30 | 0.30 | 91 | 1005.9 |
| 20260510004501 | 11 | 184 | 4.8 | 11.3 | 0.30 | 0.30 | 0.30 | 90 | 1006.6 |
| 20260510003000 | 11 | 198 | 6.4 | 19.3 | 0.28 | 0.28 | 0.28 | 89 | 1006.9 |
| 20260510000005 | 13 | 277 | 14.5 | 37.0 | 0.10 | 0.10 | 0.10 | 81 | 1006.6 |
| 20260509234500 | 17 | 179 | 1.6 | 4.8 | 0.00 | 0.00 | 0.00 | 63 | 1004.7 |
| 20260509231503 | 17 | 164 | 1.6 | 8.0 | 0.00 | 0.00 | 0.00 | 61 | 1004.0 |
| 20260509230004 | 18 | 160 | 1.6 | 6.4 | 0.00 | 0.00 | 0.00 | 60 | 1004.2 |
| 20260509224500 | 18 | 198 | 4.8 | 9.7 | 0.00 | 0.00 | 0.00 | 59 | 1004.4 |
| 20260509223000 | 18 | 171 | 4.8 | 14.5 | 0.00 | 0.00 | 0.00 | 58 | 1004.4 |
| 20260509221500 | 18 | 180 | 6.4 | 12.9 | 0.00 | 0.00 | 0.00 | 58 | 1004.6 |
| 20260509220007 | 18 | 180 | 8.0 | 16.1 | 0.00 | 0.00 | 0.00 | 57 | 1004.5 |
| 20260509214459 | 18 | 199 | 6.4 | 14.5 | 0.00 | 0.00 | 0.00 | 56 | 1004.3 |
| 20260509210002 | 20 | 180 | 9.7 | 20.9 | 0.00 | 0.00 | 0.00 | 54 | 1004.4 |
| 20260509204459 | 20 | 175 | 11.3 | 24.1 | 0.00 | 0.00 | 0.00 | 55 | 1004.4 |
| 20260509202959 | 19 | 236 | 6.4 | 16.1 | 0.00 | 0.00 | 0.00 | 59 | 1004.2 |
| 20260509201459 | 18 | 221 | 8.0 | 17.7 | 0.00 | 0.00 | 0.00 | 59 | 1004.5 |
| 20260509200005 | 18 | 184 | 9.7 | 22.5 | 0.00 | 0.00 | 0.00 | 60 | 1004.8 |
| 20260509192959 | 18 | 211 | 9.7 | 25.7 | 0.00 | 0.00 | 0.00 | 62 | 1005.2 |
| 20260509191459 | 18 | 194 | 9.7 | 20.9 | 0.00 | 0.00 | 0.00 | 62 | 1005.2 |
| 20260509190006 | 18 | 136 | 6.4 | 14.5 | 0.00 | 0.00 | 0.00 | 63 | 1005.3 |
| 20260509184459 | 18 | 180 | 8.0 | 17.7 | 0.00 | 0.00 | 0.00 | 64 | 1005.6 |
| 20260509182959 | 18 | 109 | 9.7 | 17.7 | 0.00 | 0.00 | 0.00 | 59 | 1005.8 |
| 20260509181459 | 17 | 123 | 6.4 | 16.1 | 0.00 | 0.00 | 0.00 | 60 | 1006.0 |
| 20260509180002 | 18 | 229 | 8.0 | 16.1 | 0.00 | 0.00 | 0.00 | 54 | 1006.2 |
| 20260509174500 | 18 | 204 | 11.3 | 17.7 | 0.00 | 0.00 | 0.00 | 57 | 1006.2 |
| 20260509172959 | 17 | 229 | 6.4 | 17.7 | 0.00 | 0.00 | 0.00 | 59 | 1006.3 |
| 20260509171459 | 17 | 197 | 8.0 | 17.7 | 0.00 | 0.00 | 0.00 | 65 | 1006.4 |
| 20260509164459 | 16 | 182 | 4.8 | 14.5 | 0.00 | 0.00 | 0.00 | 71 | 1006.7 |